Location: Karwodrza
(49.9217°N, 21.0454°E)
Time: 23:39:09
(UTC+01:00)

ISS - Pass Details

Date: 31 January 2019
Orbit: 403 x 411 km, 51.6° (Epoch: 18 February)

Event Time Altitude Azimuth Distance (km) Brightness Sun altitude
Rises 18:11:18 0° 275° (W) 2,335 1.6 -16.7°
Reaches altitude 10° 18:13:24 10° 279° (W) 1,476 0.2 -17.0°
Maximum altitude 18:16:42 62° 1° (N) 468 -3.7 -17.5°
Enters shadow 18:17:15 51° 48° (NE) 524 -3.7 -17.6°
